Wind_Speed
5 5 8 9 10 9 10 11 12 8 8 7 9 7 4 5 4 4 5 3 3 6 7 7 7 7 7 8 8 8 10 9 9 9 8 7 5 3 2 3 2 2 3
4 5 6 6 8 9 9 9 10 9 12 15 8 6 5 4 7 7 7 8 9 6 7 8 9 8 7 8 9 11 13 13 12 11 10 8 8 6 3 2 1 2 4
3 4 5 5 7 6 7 7 8 9 7 16 11 9 5 6 10 11 10 7 8 10 10 11 9 9 7 7 8 11 12 16 16 13 11 11 12 9 7 3 1 3 5
2 1 3 4 4 5 6 7 7 9 11 10 9 10 5 6 7 11 7 10 7 14 16 12 9 9 7 8 9 9 10 14 17 14 11 12 13 12 10 7 3 4 5
2 1 1 1 2 4 6 8 9 10 8 10 6 7 7 4 6 10 11 3 5 6 9 9 9 10 10 10 10 7 6 9 15 14 12 14 13 14 14 11 7 6 7
5 4 5 3 4 4 5 7 9 9 7 6 6 7 3 3 6 9 7 7 5 5 9 12 11 11 14 14 12 10 8 12 12 15 14 16 15 14 17 15 12 9 9
8 6 6 7 6 5 5 7 7 7 8 8 6 5 1 2 7 5 9 5 5 8 8 7 11 17 18 17 19 12 11 14 13 9 11 17 17 16 18 18 16 13 10
8 8 8 8 6 6 5 5 4 5 7 9 7 7 5 3 6 7 4 6 7 8 9 7 2 7 20 25 20 18 13 14 13 13 13 15 19 18 19 21 20 17 15
10 9 8 8 8 5 3 3 2 3 7 11 4 6 5 5 2 3 6 8 7 8 11 7 7 3 7 14 20 16 17 18 16 17 16 17 20 20 19 21 21 20 19
10 8 8 7 6 5 4 4 3 3 5 6 4 7 9 9 7 9 7 10 7 12 8 8 7 7 9 10 16 23 13 16 17 16 18 18 21 23 23 22 22 22 22
11 10 8 7 7 7 6 5 6 5 5 6 8 10 12 13 12 12 14 10 8 9 9 8 6 8 10 8 7 9 11 15 14 16 19 20 22 23 24 25 24 23 22
10 9 8 8 9 8 6 7 6 5 7 9 10 13 14 15 16 16 15 12 14 9 12 8 8 10 7 5 7 8 10 13 14 14 16 19 22 24 25 28 27 25 23
9 9 10 10 9 9 9 8 9 8 8 11 13 14 13 14 12 12 13 17 14 13 11 8 8 6 8 5 3 4 6 11 13 14 16 18 21 22 22 26 27 26 24
11 12 12 11 11 9 10 10 10 11 10 11 11 11 10 9 9 11 12 14 15 14 14 14 10 10 10 5 5 5 9 10 14 13 15 17 21 21 21 24 26 27 28
10 11 10 9 7 8 8 9 10 10 9 11 10 10 11 12 11 11 11 12 12 12 14 15 17 13 9 9 5 5 7 8 12 14 14 18 21 23 21 22 23 26 28
10 8 8 10 9 9 9 9 7 7 7 7 7 9 9 11 10 9 9 8 8 9 13 21 21 17 13 10 12 11 10 8 11 14 15 16 20 22 22 23 24 25 27
8 7 8 9 11 12 12 10 8 6 8 7 6 6 8 9 9 6 7 7 7 9 9 12 17 17 14 10 12 10 9 9 9 15 16 16 18 20 22 23 24 25 26
7 3 3 4 5 7 10 8 8 5 3 2 2 6 9 10 6 4 7 8 9 8 6 6 13 14 20 17 11 8 10 10 7 10 15 15 17 19 21 21 23 24 25
9 7 4 2 1 2 2 4 7 5 2 3 7 7 8 9 4 5 9 11 11 13 11 9 8 6 14 13 10 8 9 9 6 6 12 13 17 19 21 25 27 27 26
11 9 6 5 4 4 4 3 3 2 3 7 7 7 8 8 7 6 8 8 9 10 10 11 13 11 6 6 4 6 9 9 9 10 11 14 15 17 19 23 26 26 28
13 12 10 8 6 5 3 4 4 3 4 4 5 6 6 7 6 8 9 11 12 13 13 10 10 16 14 11 10 11 12 11 11 12 12 13 15 17 19 22 22 25 28
14 13 12 11 10 10 9 8 7 7 6 5 5 6 6 7 8 8 9 11 13 14 15 15 11 6 14 13 13 13 14 12 13 14 15 15 16 17 18 19 22 21 22
16 15 14 14 14 13 12 12 12 11 10 8 7 7 7 7 8 10 9 10 12 14 14 16 15 12 6 7 11 14 16 17 19 17 19 22 20 23 21 23 22 24 25
19 20 19 19 18 18 17 18 17 17 16 14 12 10 9 9 9 9 12 12 10 15 19 23 21 14 12 12 10 10 10 11 12 13 15 19 21 25 28 29 28 28 28
25 22 23 24 24 23 22 23 22 21 19 17 14 13 14 14 14 14 13 13 16 19 18 18 24 21 19 18 17 18 17 17 17 18 18 18 20 19 21 25 26 27 28
30 31 26 27 27 25 27 26 25 26 24 23 21 21 20 19 19 20 19 18 18 19 19 21 20 25 23 22 21 23 24 24 23 25 29 24 26 25 24 29 29 29 29
Wind_Direction
84 77 70 75 68 57 39 43 33 25 3 351 3 2 350 348 345 294 235 204 242 220 215 225 212 222 237 242 237 226 219 217 206 193 191 192 172 174 122 95 105 141 139
90 66 73 74 60 47 42 36 20 29 41 20 14 359 318 343 312 306 288 243 232 221 223 222 222 208 230 248 253 250 225 215 207 201 191 202 196 191 189 125 80 164 155
117 81 56 55 49 29 22 19 23 30 27 9 20 11 279 325 337 313 297 281 277 242 234 229 222 224 221 250 257 272 246 237 204 203 201 208 204 196 191 175 140 144 151
134 62 52 24 23 25 11 359 18 18 12 10 29 19 342 318 343 349 318 268 278 235 244 217 226 227 221 245 248 258 278 234 194 195 195 187 194 203 195 192 175 161 156
173 215 221 26 330 349 340 334 349 352 5 358 36 356 354 304 330 9 5 298 252 228 239 223 230 250 237 250 258 249 257 195 189 195 199 198 195 207 204 197 194 185 176
204 239 246 261 269 291 298 317 331 341 340 339 355 1 80 353 346 353 28 20 334 288 275 254 249 251 248 237 245 241 222 212 205 215 217 209 203 205 210 204 200 203 193
196 207 223 242 261 279 300 309 321 328 332 328 319 317 293 283 323 14 17 354 343 6 342 293 254 252 242 238 222 227 215 213 212 220 212 213 210 208 211 214 208 210 209
197 210 235 250 262 272 287 301 297 331 314 313 286 315 312 286 270 299 324 359 347 332 324 355 327 265 252 238 224 205 212 214 220 216 224 222 219 213 213 218 218 217 220
200 206 220 237 242 249 284 298 288 298 318 348 258 279 282 283 288 286 304 324 304 325 6 5 326 322 279 262 236 192 209 218 222 226 223 224 222 220 218 219 222 223 222
210 208 226 233 231 235 256 269 300 292 314 314 284 282 297 268 294 292 306 301 294 303 332 2 337 338 264 246 248 240 195 210 212 219 223 229 223 221 221 222 224 230 228
216 212 212 229 231 241 252 252 266 286 305 298 310 310 304 318 328 325 300 329 311 308 342 335 343 325 326 253 256 237 237 215 217 223 221 228 224 220 223 227 228 229 232
225 224 220 228 248 255 250 266 277 281 290 299 301 306 312 319 322 318 320 308 314 297 340 329 330 319 339 303 266 228 228 219 215 218 221 226 226 220 224 227 230 232 233
247 247 247 246 246 256 270 274 280 281 278 287 297 303 310 307 305 303 316 300 294 286 304 325 324 290 318 302 273 277 243 225 222 213 222 226 221 220 222 223 227 234 237
247 252 254 256 257 260 266 273 278 277 280 286 290 297 305 307 302 300 308 286 294 284 297 266 314 306 295 314 262 254 236 229 229 224 218 218 221 219 223 227 231 234 239
244 246 254 261 256 267 274 271 264 268 277 275 295 283 291 298 296 308 322 321 301 261 279 286 276 293 292 283 262 260 258 253 230 223 218 219 223 229 232 234 236 241 244
254 258 267 260 258 256 255 258 274 259 273 290 286 285 298 305 298 307 315 327 333 313 278 264 269 275 265 263 249 240 260 283 247 230 222 221 227 234 239 243 243 246 248
237 244 256 264 257 253 256 246 251 252 274 303 311 322 327 309 279 288 299 302 319 337 316 259 254 263 246 241 230 266 237 269 286 246 236 227 227 232 237 242 246 252 252
226 229 256 286 272 250 247 249 230 244 262 290 337 325 334 331 281 299 306 309 301 298 302 290 259 256 246 216 222 233 255 291 271 244 240 249 246 242 238 242 248 250 255
183 191 200 189 207 184 172 179 181 193 189 307 316 329 340 355 346 295 296 302 302 292 288 285 282 283 214 205 218 231 257 263 259 262 236 247 249 249 253 254 250 251 253
195 201 212 200 204 187 155 167 154 178 303 319 321 331 341 349 352 344 340 320 329 328 310 284 272 273 257 237 224 252 255 254 255 252 241 245 253 254 249 262 253 259 262
201 210 225 231 218 205 210 199 208 242 279 305 322 327 337 347 348 341 338 330 334 334 333 325 298 255 248 251 255 258 261 262 260 257 252 249 254 253 255 268 248 254 263
211 210 215 222 223 221 214 217 223 233 238 246 272 292 310 313 319 322 333 331 331 340 338 337 343 315 244 250 257 262 266 265 266 272 274 271 269 264 263 265 262 265 257
227 230 230 225 226 230 231 232 233 237 238 246 257 270 282 297 315 318 329 335 325 327 325 337 343 337 328 270 268 271 274 277 278 277 280 279 277 275 272 269 269 269 269
236 237 237 244 242 240 240 244 247 249 251 254 260 270 279 283 290 298 304 303 303 307 316 318 325 316 314 312 303 285 284 283 281 280 277 283 281 277 277 276 275 272 270
239 241 245 247 251 255 261 263 263 263 265 269 274 276 281 285 286 284 280 287 291 294 305 315 311 308 308 306 302 300 297 296 299 293 287 290 293 285 284 283 280 278 279
249 248 243 253 260 269 268 267 267 269 269 270 273 281 278 275 277 282 287 286 284 290 290 289 277 290 292 294 296 298 299 297 297 296 291 294 292 285 286 287 285 282 282
Height
5939 5939 5939 5939 5939 5940 5941 5942 5942 5941 5940 5939 5938 5938 5938 5938 5938 5939 5939 5939 5939 5938 5939 5940 5940 5942 5943 5944 5944 5944 5945 5946 5946 5946 5948 5950 5950 5950 5950 5951 5951 5951 5951
5940 5940 5940 5940 5941 5942 5942 5943 5943 5941 5940 5939 5938 5936 5936 5937 5937 5938 5938 5938 5938 5937 5938 5938 5939 5939 5940 5942 5942 5943 5944 5945 5946 5947 5947 5949 5951 5951 5951 5951 5951 5952 5952
5940 5940 5940 5941 5941 5942 5943 5943 5942 5942 5941 5940 5939 5938 5936 5936 5937 5936 5935 5936 5936 5936 5936 5936 5937 5937 5938 5941 5941 5940 5941 5942 5944 5945 5947 5948 5950 5951 5952 5952 5952 5952 5953
5940 5940 5941 5941 5941 5943 5943 5943 5943 5943 5943 5942 5939 5938 5938 5937 5937 5935 5933 5933 5933 5933 5934 5935 5935 5936 5936 5936 5938 5938 5939 5938 5942 5944 5945 5947 5949 5951 5952 5952 5953 5953 5954
5940 5941 5942 5943 5943 5943 5942 5943 5942 5941 5941 5941 5940 5939 5938 5939 5938 5935 5933 5932 5932 5932 5932 5933 5934 5935 5935 5935 5936 5937 5937 5939 5941 5943 5944 5946 5948 5950 5951 5952 5953 5954 5955
5940 5941 5942 5942 5943 5943 5943 5942 5941 5940 5941 5941 5941 5940 5939 5939 5939 5936 5934 5933 5933 5931 5930 5930 5931 5932 5933 5932 5932 5935 5936 5938 5940 5942 5943 5945 5946 5948 5950 5951 5953 5954 5955
5940 5941 5941 5943 5944 5944 5943 5942 5941 5941 5941 5941 5941 5940 5939 5938 5938 5936 5935 5934 5932 5931 5928 5928 5929 5928 5929 5930 5930 5932 5934 5937 5939 5940 5941 5944 5945 5947 5949 5951 5952 5953 5955
5939 5940 5940 5941 5942 5943 5942 5942 5941 5941 5940 5939 5940 5940 5940 5939 5937 5936 5935 5934 5933 5931 5927 5926 5926 5927 5927 5926 5929 5929 5932 5935 5937 5939 5940 5942 5944 5946 5947 5949 5951 5952 5954
5938 5939 5940 5940 5941 5941 5941 5941 5941 5940 5940 5938 5938 5939 5938 5937 5936 5935 5935 5933 5931 5930 5928 5927 5925 5924 5924 5924 5925 5926 5928 5931 5934 5936 5938 5940 5942 5944 5946 5948 5950 5951 5952
5936 5937 5938 5939 5939 5939 5940 5940 5940 5940 5939 5938 5937 5937 5937 5934 5934 5935 5933 5930 5931 5929 5927 5926 5925 5924 5923 5921 5921 5923 5926 5928 5930 5932 5934 5937 5939 5941 5943 5946 5947 5949 5950
5933 5935 5937 5937 5938 5938 5939 5939 5939 5938 5937 5938 5936 5936 5935 5934 5933 5933 5932 5930 5929 5927 5928 5925 5925 5923 5921 5919 5919 5920 5923 5925 5927 5929 5931 5934 5936 5938 5940 5943 5945 5946 5948
5931 5933 5934 5935 5935 5936 5936 5937 5936 5936 5935 5935 5935 5934 5933 5932 5931 5930 5930 5928 5928 5928 5927 5925 5923 5922 5920 5919 5919 5920 5921 5922 5923 5925 5927 5929 5932 5934 5936 5939 5942 5944 5945
5929 5930 5930 5931 5933 5933 5933 5932 5932 5933 5934 5934 5933 5932 5931 5930 5930 5929 5927 5925 5926 5926 5926 5925 5922 5922 5921 5919 5918 5918 5919 5920 5922 5922 5924 5926 5929 5931 5933 5935 5938 5941 5942
5926 5927 5928 5929 5929 5930 5931 5930 5930 5930 5930 5930 5930 5929 5929 5928 5926 5926 5925 5923 5922 5922 5922 5923 5922 5921 5920 5918 5918 5917 5918 5919 5920 5920 5922 5924 5927 5929 5931 5932 5935 5937 5938
5924 5924 5925 5926 5926 5927 5928 5927 5927 5928 5928 5927 5928 5928 5927 5926 5925 5924 5922 5920 5918 5918 5917 5918 5918 5918 5917 5916 5916 5916 5916 5916 5917 5918 5920 5922 5924 5927 5928 5929 5931 5933 5935
5921 5922 5922 5923 5923 5924 5925 5924 5925 5927 5926 5925 5925 5926 5925 5923 5922 5921 5920 5918 5916 5914 5912 5912 5912 5914 5913 5913 5913 5914 5915 5915 5915 5915 5916 5918 5921 5923 5925 5927 5927 5929 5930
5919 5920 5921 5921 5921 5921 5921 5921 5923 5923 5924 5923 5923 5922 5921 5920 5918 5917 5916 5915 5913 5910 5909 5908 5908 5909 5910 5910 5911 5912 5913 5913 5911 5913 5914 5915 5916 5918 5920 5922 5924 5925 5926
5916 5918 5918 5919 5919 5919 5919 5919 5922 5922 5921 5921 5920 5919 5919 5916 5914 5913 5913 5912 5911 5909 5907 5905 5903 5902 5904 5904 5906 5909 5909 5910 5909 5909 5910 5912 5914 5915 5916 5917 5919 5920 5921
5916 5916 5917 5917 5918 5918 5918 5918 5919 5920 5920 5919 5919 5917 5917 5915 5913 5912 5912 5911 5909 5908 5905 5903 5901 5900 5899 5900 5902 5904 5906 5906 5906 5907 5907 5907 5908 5910 5911 5912 5913 5914 5914
5915 5915 5917 5917 5917 5917 5917 5918 5918 5919 5918 5918 5917 5917 5916 5915 5914 5913 5912 5910 5909 5907 5905 5903 5900 5898 5898 5899 5899 5900 5902 5903 5903 5903 5903 5904 5905 5905 5906 5906 5906 5908 5907
5912 5913 5915 5915 5915 5915 5915 5915 5916 5916 5916 5916 5915 5914 5913 5912 5912 5912 5911 5909 5908 5906 5904 5902 5899 5897 5897 5897 5898 5899 5899 5900 5900 5900 5900 5899 5899 5899 5899 5899 5898 5899 5900
5908 5910 5911 5912 5912 5912 5911 5911 5912 5912 5912 5912 5912 5911 5911 5910 5909 5909 5908 5908 5906 5904 5902 5901 5899 5896 5896 5896 5896 5896 5896 5896 5895 5895 5896 5896 5895 5894 5893 5892 5892 5892 5891
5904 5906 5907 5907 5907 5907 5908 5908 5908 5908 5908 5908 5908 5909 5908 5907 5906 5906 5905 5905 5905 5903 5901 5900 5899 5898 5896 5894 5893 5893 5893 5892 5891 5892 5891 5890 5891 5888 5888 5886 5886 5886 5886
5900 5900 5902 5903 5903 5902 5902 5903 5903 5903 5903 5902 5903 5904 5904 5903 5902 5901 5902 5902 5901 5901 5901 5900 5897 5896 5896 5895 5894 5891 5890 5888 5888 5887 5886 5884 5884 5882 5882 5880 5879 5879 5878
5896 5895 5895 5896 5897 5897 5897 5898 5899 5900 5901 5900 5900 5900 5899 5899 5898 5898 5896 5896 5896 5896 5897 5897 5895 5894 5892 5892 5892 5890 5888 5885 5884 5881 5880 5879 5877 5876 5875 5873 5871 5870 5869
5889 5889 5889 5891 5891 5893 5893 5895 5896 5896 5897 5897 5898 5897 5894 5892 5892 5891 5891 5891 5890 5889 5889 5891 5890 5889 5887 5886 5886 5885 5884 5883 5880 5877 5871 5873 5870 5869 5868 5865 5864 5862 5861